This is the latest recevied weather packets stored in our database for station/object KB3KAV. If no packets are shown the sender has not sent any weather packets the latest 10 day(s).
| Time | Temp. | Humidity | Pressure | Rain* | Wind** | Luminosity | Snow |
|---|---|---|---|---|---|---|---|
| 1787481747 | 16.11° C | 95% | 1039.2 hPa | 0 mm | - | 3 W/m² | - |
| 1787481146 | 16.11° C | 95% | 1039.2 hPa | 0 mm | - | 2 W/m² | - |
| 1787480545 | 16.67° C | 95% | 1039.1 hPa | 0 mm | - | 0 W/m² | - |
| 1787479941 | 16.67° C | 95% | 1038.7 hPa | 0 mm | - | 0 W/m² | - |
| 1787479340 | 16.67° C | 95% | 1038.9 hPa | 0 mm | - | 0 W/m² | - |
| 1787478739 | 16.67° C | 95% | 1038.8 hPa | 0 mm | - | 0 W/m² | - |
| 1787478136 | 16.67° C | 95% | 1038.7 hPa | 0 mm | - | 0 W/m² | - |
| 1787477534 | 16.67° C | 95% | 1038.9 hPa | 0 mm | - | 0 W/m² | - |
| 1787476931 | 16.67° C | 95% | 1038.9 hPa | 0 mm | - | 0 W/m² | - |
| 1787476328 | 16.67° C | 95% | 1038.5 hPa | 0 mm | - | 0 W/m² | - |
| 1787475726 | 16.67° C | 95% | 1038.7 hPa | 0 mm | - | 0 W/m² | - |
| 1787475122 | 16.67° C | 95% | 1038.6 hPa | 0 mm | - | 0 W/m² | - |
| 1787474519 | 16.67° C | 95% | 1038.5 hPa | 0 mm | - | 0 W/m² | - |
| 1787473916 | 16.67° C | 95% | 1038.3 hPa | 0 mm | - | 0 W/m² | - |
| 1787473316 | 16.67° C | 95% | 1038.4 hPa | 0 mm | - | 0 W/m² | - |
| 1787472714 | 16.67° C | 95% | 1038.8 hPa | 0 mm | - | 0 W/m² | - |
| 1787472110 | 16.67° C | 95% | 1038.8 hPa | 0 mm | - | 0 W/m² | - |
| 1787471508 | 16.67° C | 95% | 1038.8 hPa | 0 mm | - | 0 W/m² | - |
| 1787470905 | 16.67° C | 95% | 1039 hPa | 1.27 mm | - | 0 W/m² | - |
| 1787470306 | 16.67° C | 95% | 1039 hPa | 3.56 mm | - | 0 W/m² | - |
| 1787469700 | 16.67° C | 95% | 1039.4 hPa | 1.27 mm | - | 0 W/m² | - |
| 1787469097 | 16.67° C | 95% | 1039.3 hPa | 1.78 mm | - | 0 W/m² | - |
| 1787468494 | 16.67° C | 95% | 1039.2 hPa | 0 mm | - | 0 W/m² | - |
| 1787467891 | 16.67° C | 95% | 1039.3 hPa | 0 mm | - | 0 W/m² | - |
| 1787467287 | 17.22° C | 95% | 1039.1 hPa | 0 mm | - | 0 W/m² | - |
* Rain latest hour (hover to see other rain measurements)
** Current wind speed in m/s (hover to see current wind gust speed)